Location: The Saddle
(36.8333°N, 80.3417°W)
Time: 15:14:07
(UTC-05:00)

Tiros 1 despin weight - Visible Passes

Search period start: 25 January 2022 00:00
Search period end: 04 February 2022 00:00
Orbit: 592 x 641 km, 48.2° (Epoch: 25 January)

Date Brightness Start Highest point End Pass type
(mag) Time Alt. Az. Time Alt. Az. Time Alt. Az.
25 Jan ? 19:38:06 10° NW 19:41:25 20° N 19:41:25 20° N visible
26 Jan ? 18:11:34 10° WNW 18:15:19 24° NNW 18:19:08 10° NE visible
26 Jan ? 19:54:34 10° NW 19:56:51 19° NNW 19:56:51 19° NNW visible
27 Jan ? 18:28:22 10° NW 18:31:49 20° N 18:35:15 10° NE visible
27 Jan ? 20:10:46 10° NW 20:12:17 17° NNW 20:12:17 17° NNW visible
28 Jan ? 18:45:01 10° NW 18:48:22 20° N 18:50:43 14° NE visible
28 Jan ? 20:26:47 10° NW 20:27:45 15° NW 20:27:45 15° NW visible
29 Jan ? 19:01:21 10° NW 19:04:54 21° N 19:06:12 19° NNE visible
29 Jan ? 20:42:44 10° NW 20:43:14 13° NW 20:43:14 13° NW visible
30 Jan ? 19:17:28 10° NW 19:21:21 26° NNE 19:21:45 26° NNE visible
30 Jan ? 20:58:44 10° NW 20:58:47 10° NW 20:58:47 10° NW visible
31 Jan ? 19:33:26 10° NW 19:37:21 36° NNE 19:37:21 36° NNE visible
01 Feb ? 18:08:05 10° NW 18:11:43 22° NNE 18:15:23 10° ENE visible
01 Feb ? 19:49:23 10° NW 19:53:04 49° NNW 19:53:04 49° NNW visible
02 Feb ? 18:24:08 10° NW 18:28:09 29° NNE 18:31:49 12° ENE visible
02 Feb ? 20:05:25 10° WNW 20:08:53 50° WNW 20:08:53 50° WNW visible
03 Feb ? 18:40:04 10° NW 18:44:27 43° NNE 18:47:47 17° E visible
03 Feb ? 20:21:41 10° WNW 20:24:51 33° WSW 20:24:51 33° WSW visible
